Regional Weather Roundup
Issued by NWS

Home | Current Version | Previous Version | Text Only | Print | Product List | Glossary Off
Versions: 1 2 3 4 5 6 7 8 9 10 11 12 13 14 15 16 17 18 19 20 21 22 23 24 25 26 27 28 29 30 31 32 33 34 35 36 37 38 39 40 41 42 43 44 45 46 47 48 49 50

550
ASUS43 KLOT 142003
RWRIL

ILLINOIS REGIONAL WEATHER ROUNDUP
NATIONAL WEATHER SERVICE CHICAGO/ROMEOVILLE IL
200 PM CST SUN FEB 14 2016

NOTE: "FAIR" INDICATES FEW OR NO CLOUDS BELOW 12,000 FEET WITH NO
SIGNIFICANT WEATHER AND/OR OBSTRUCTIONS TO VISIBILITY.

* THESE STATIONS ARE NOT UNDER NWS QUALITY CONTROL. THEY ALSO MAY NOT
  REPORT WEATHER SUCH AS PRECIPITATION OR FOG.

ILZ001-002-007-009-015-016-024-142100-
NORTHWEST ILLINOIS

CITY           SKY/WX    TMP DP  RH WIND       PRES   REMARKS
MOLINE         SNOW      20  14  77 E17       30.01F VSB 1/2 WCI   5
STERLING*      CLOUDY    18  12  79 E12G21    30.04F WCI   5
$$

ILZ003-004-008-010-011-017-018-142100-
NORTH CENTRAL ILLINOIS

CITY           SKY/WX    TMP DP  RH WIND       PRES   REMARKS
ROCKFORD       LGT SNOW  17  11  77 SE16      30.11F FOG     WCI   2
FREEPORT*      LGT SNOW  16  12  82 SE21G29   30.09F WCI  -1
$$

ILZ005-006-012>014-019>023-142100-
NORTHEAST ILLINOIS

CITY           SKY/WX    TMP DP  RH WIND       PRES   REMARKS
CHICAGO-OHARE  SNOW      17  13  84 SE14      30.15F VSB 1/2 WCI   3
CHICAGO-MIDWAY LGT SNOW  18  11  74 SE10G23   30.17F VSB 3/4 WCI   6
AURORA         LGT SNOW  18  13  80 E15       30.13F VSB 1   WCI   4
WAUKEGAN       SNOW      16  13  88 SE16      30.15F VSB 1/2 WCI   1
DUPAGE AIRPORT LGT SNOW  16  10  77 SE12      30.12F VSB 3/4 WCI   3
WHEELING       SNOW      16  13  88 SE7       30.17F VSB 1/2 WCI   6
NORTHERLY ISL    N/A     17  14  88 SE14        N/A  WCI   3
$$

LMZ740>746-142100-
SOUTHERN LAKE MICHIGAN

STATION/POSITION SKY/WX   TEMP    WIND        PRES    VSBY  WAVE
                          AIR SEA DIR/SP/G                  HT/PER
                          (F)     (DEG/KT/KT) (MB)    (MI)  (FT/S)
HARRISON CRIB              17     150/ 15/ 18   N/A
BURNHAM HARBOR             17     120/ 15/ 17   N/A
CALUMET HARBOR             15     130/  8/ 12 1022.2F
BURNS HARBOR               15     120/  9/ 17 1023.4F
MICHIGAN CITY              15     120/ 13/ 17   N/A
$$

ILZ025>027-034>036-040-047-049-050-058-095>099-142100-
WEST-CENTRAL ILLINOIS

CITY           SKY/WX    TMP DP  RH WIND       PRES   REMARKS
QUINCY         CLOUDY    23  18  81 SE14      29.94F WCI  11
MACOMB*        CLOUDY    20  18  90 SE14      30.02F FOG     WCI   7
$$

ILZ028>032-037-038-041>044-048-051>054-059>061-142100-
CENTRAL ILLINOIS

CITY           SKY/WX    TMP DP  RH WIND       PRES   REMARKS
BLOOMINGTON    LGT SNOW  20  16  84 SE18G24   30.06F FOG     WCI   5
DECATUR        LGT SNOW  20  16  84 SE14      30.06F FOG     WCI   7
PEORIA         CLOUDY    20  14  77 SE12      30.05F WCI   8
SPRINGFIELD    CLOUDY    23  18  81 SE17      30.03F WCI   9
TAYLORVILLE    NOT AVBL
$$

ILZ033-039-045-046-055>057-062-063-142100-
EAST-CENTRAL ILLINOIS

CITY           SKY/WX    TMP DP  RH WIND       PRES   REMARKS
CHAMPAIGN      LGT SNOW  21  17  84 E20       30.09F FOG     WCI   6
MATTOON        SNOW      20  16  84 SE16      30.06F VSB 1/2 WCI   6
$$

ILZ079-100>102-142100-
SOUTHWEST ILLINOIS

CITY           SKY/WX    TMP DP  RH WIND       PRES   REMARKS
ALTON          CLOUDY    23  19  86 SE14      30.02F WCI  11
CAHOKIA*       CLOUDY    26  20  77 SE12      30.02F WCI  16
SPARTA*        CLOUDY    25  21  87 SE6       30.04F WCI  18
$$

ILZ064>066-069>071-074>076-080>082-084>086-088>090-092>094-142100-
SOUTH-CENTRAL ILLINOIS

CITY           SKY/WX    TMP DP  RH WIND       PRES   REMARKS
CARBONDALE     CLOUDY    26  21  81 SE7       30.04F WCI  18
MARION         LGT SNOW  27  23  86 SE12      30.06F WCI  16
MT. VERNON     CLOUDY    23  18  80 E6        30.06F VSB 1   WCI  16
CENTRALIA*     LGT SNOW  25  21  86 SE8       30.05F WCI  16
SALEM*         LGT SNOW  25  19  79 SE9G16    30.05F WCI  16
$$

ILZ067-068-072-073-078-083-087-091-142100-
SOUTHEAST ILLINOIS

CITY           SKY/WX    TMP DP  RH WIND       PRES   REMARKS
LAWRENCEVILLE  LGT SNOW  21  18  88 E13       30.13F VSB 3/4 WCI   9
HARRISBURG*    LGT SNOW  25  22  90 E8        30.08F WCI  16
$$

ABBREVIATIONS USED IN REMARKS
   TC - TEMPERATURE IN CELSIUS
  WCI - WIND CHILL INDEX
   HX - HEAT INDEX
  VSB - VISIBILITY
$$





USA.gov is the U.S. government's official web portal to all federal, state and local government web resources and services.